MPEC 2004-L66 : 2004 LA10

The following Minor Planet Electronic Circular may be linked-to from your own Web pages, but must not otherwise be redistributed electronically.


Read MPEC 2004-L65 Read MPEC 2004-L67


M.P.E.C. 2004-L66                                Issued 2004 June 15, 11:41 UT

     The Minor Planet Electronic Circulars contain information on unusual
         minor planets and routine data on comets.  They are published
   on behalf of Commission 20 of the International Astronomical Union by the
          Minor Planet Center, Smithsonian Astrophysical Observatory,
                          Cambridge, MA 02138, U.S.A.

         Supported in part by the Steven and Michele Kirsch Foundation
             Prepared using the Tamkin Foundation Computer Network

                              MPC@CFA.HARVARD.EDU
          URL http://cfa-www.harvard.edu/iau/mpc.html  ISSN 1523-6714

                                   2004 LA10

Observations:
     K04L10A*tC2004 06 14.26582 15 54 00.15 -02 39 35.1                 EL066691
     K04L10A tC2004 06 14.29679 15 54 19.02 -02 39 05.5                 EL066691
     K04L10A tC2004 06 14.32372 15 54 35.56 -02 38 39.0          18   V EL066691
     K04L10A  C2004 06 14.91646 16 01 27.51 -02 29 28.7                 EL066557
     K04L10A  C2004 06 14.91762 16 01 28.34 -02 29 28.1                 EL066557
     K04L10A  C2004 06 14.91821 16 01 28.70 -02 29 28.6                 EL066557
     K04L10A  C2004 06 14.91878 16 01 29.11 -02 29 27.4                 EL066557
     K04L10A  C2004 06 14.91995 16 01 29.79 -02 29 24.1                 EL066557
     K04L10A  C2004 06 14.92054 16 01 30.22 -02 29 22.8                 EL066557
     K04L10A  C2004 06 14.92170 16 01 31.01 -02 29 22.6                 EL066557
     K04L10A  C2004 06 14.92228 16 01 31.38 -02 29 22.9                 EL066557
     K04L10A  C2004 06 14.96268 16 02 00.76 -02 28 44.2          20.2 R EL066J95
     K04L10A  C2004 06 14.96980 16 02 05.65 -02 28 35.9          19.6 R EL066J95
     K04L10A  C2004 06 14.97566 16 02 08.60 -02 28 06.6          19.5 R EL066620
     K04L10A  C2004 06 14.97701 16 02 10.44 -02 28 28.8          20.3 R EL066J95
     K04L10A  C2004 06 14.98058 16 02 11.88 -02 28 02.6          19.5 R EL066620
     K04L10A  C2004 06 15.20125 16 04 59.15 -02 23 56.6          19.7 R EL066854
     K04L10A  C2004 06 15.20708 16 05 03.07 -02 23 49.6          19.7 R EL066854
     K04L10A  C2004 06 15.23624 16 05 23.10 -02 23 19.5          19.8 R EL066854
     K04L10A  C2004 06 15.23682 16 05 23.45 -02 23 17.8                 EL066926
     K04L10A  C2004 06 15.23748 16 05 23.90 -02 23 16.2          19.2 R EL066926
     K04L10A  C2004 06 15.23816 16 05 24.34 -02 23 16.6          19.4 R EL066926
     K04L10A  C2004 06 15.25496 16 05 35.14 -02 23 03.1          19.0 R EL066H06
     K04L10A  C2004 06 15.25870 16 05 37.73 -02 22 58.1          18.7 R EL066H06
     K04L10A  C2004 06 15.26244 16 05 40.33 -02 22 53.9          19.1 R EL066H06

Observer details:
557 Ondrejov.  Observer P. Kusnirak.  0.65-m f/3.6 reflector + CCD.
620 Observatorio Astronomico de Mallorca.  Observers S. Sanchez, R. Stoss,
    J. Nomen.  0.30-m f/9 Schmidt-Cassegrain + CCD.
691 Steward Observatory, Kitt Peak.  Observers M. Block, K. W. Pavitt.  0.9-m
    f/3 reflector + CCD.
854 Sabino Canyon Observatory, Tucson.  Observer J. E. McGaha.  0.356-m f/10.0
    Schmidt-Cassegrain + CCD.
926 Tenagra II Observatory.  Observers P. R. Holvorcem, M. Schwartz.  0.81-m
    f/7 Ritchey-Chretien + CCD.
H06 New Mexico Skies Observatory.  Observer R. Hutsebaut.  0.25-m reflector
    + CCD.
J95 Great Shefford.  Observer P. Birtwhistle.  0.30-m f/6.3 Schmidt-Cassegrain
    + CCD.

Orbital elements:
2004 LA10
Epoch 2004 June 4.0 TT = JDT 2453160.5                  MPC
M 353.49190              (2000.0)            P               Q
n   0.24790781     Peri.  141.00767     +0.18297560     +0.98304376
a   2.5096274      Node   139.53137     -0.90657103     +0.17345297
e   0.5840018      Incl.    1.06269     -0.38032736     +0.05948976
P   3.98           H   24.7           G   0.15
From 25 observations 2004 June 14-15.

Ephemeris:
2004 LA10                a,e,i = 2.51, 0.58, 1                   q = 1.0440
Date    TT    R. A. (2000) Decl.     Delta      r     Elong.  Phase     V
2004 06 14    15 51.15   -02 42.3    0.057    1.065   148.4    30.0    19.9
2004 06 24    19 13.03   +01 31.6    0.035    1.047   151.0    28.1    18.8
2004 07 04    22 37.51   +03 36.0    0.056    1.045   119.3    58.0    20.6
2004 07 14    23 41.14   +03 09.4    0.093    1.059   114.8    60.6    21.8

Timothy B. Spahr             (C) Copyright 2004 MPC           M.P.E.C. 2004-L66

Read MPEC 2004-L65 Read MPEC 2004-L67


Our Web policy. Index to the CBAT/MPC/ICQ pages.

MPC